ONEWEB-0200 (48244 NORAD) Tracking and Keplerian Element Data

This shows tracking and keplerian element data for the satellite.

Feedback or suggestion? Click here.




ElementValue
Catalog48244
NameONEWEB-0200
Epoch Orbit181
Epoch Day136.75001157
Epoch Year2021
RAAN305.7815
Inclination87.4181
Eccentricity0.0009975
Argument of Perigee177.1412
Mean Anonmoly273.2022
Mean Motion15.27331014
Decay Rate-0.01415723
L11 48244U 21031AL 21136.75001157 -.01415723 00000-0 -58335-1 0 9998
L22 48244 87.4181 305.7815 0009975 177.1412 273.2022 15.27331014 1810

Live tracking and technical data element details for ONEWEB-0200 (NORAD 48244). ONEWEB-0200 can be tracked NOW for your location showing map with azimuth and elevation plus other details from your city location.

Track the satellite on the map from your city or location and see movement details for azimuth, elevation, latitude, longitude, range, height, and movement on the map or in text.







IsCatalogInMostPopularTable: catalog: 48244, numindb: 7
Update: records affected: 1



GetName: 48244 ONEWEB-0200

Hit Count: updated at: Mon, 17 May 2021 16:58:05 GMT